EHI
0 0 0 0 0 0 0 0 1 1 1 2 5 6 5 4 3 3 3 8 14 20 26 36 48 55 55 51 46 39 35 35 35 34 31 28 26 25 24 23 22 18 12 7 5 4 4 4 3
0 0 0 0 0 0 0 1 2 2 1 2 5 6 6 6 6 5 7 13 18 21 25 35 47 55 54 51 47 43 38 35 33 31 28 25 22 21 21 22 21 17 10 6 4 3 3 3 2
0 0 0 0 0 0 0 1 2 3 2 2 4 6 8 9 8 8 13 19 22 22 24 34 49 56 53 50 48 46 41 35 30 27 24 20 17 16 17 17 16 13 8 5 3 3 3 2 1
0 0 0 0 0 0 0 1 3 3 3 2 4 7 11 11 12 14 20 24 24 22 23 34 51 57 53 48 47 47 43 36 30 25 20 17 16 14 12 11 10 8 7 5 4 3 2 2 1
0 0 0 0 0 1 1 2 2 2 2 3 5 8 11 15 21 26 28 26 24 22 23 34 49 53 47 42 41 43 41 36 31 25 21 19 17 15 11 8 7 6 6 5 3 3 3 2 2
0 0 0 0 1 2 2 1 1 2 2 4 7 9 10 17 27 33 32 27 24 23 26 35 42 42 38 36 36 36 36 34 31 26 22 19 18 15 13 10 7 6 6 4 2 2 3 2 1
0 0 0 0 1 1 1 0 0 1 2 4 7 8 10 16 25 33 33 28 24 25 30 34 36 34 32 32 33 32 31 32 30 25 19 17 15 13 13 11 8 6 4 2 1 1 2 2 1
0 0 0 0 0 0 0 0 0 1 3 5 7 8 10 16 24 31 31 28 24 24 28 31 30 28 28 29 30 31 30 30 30 24 18 14 11 8 9 9 8 4 1 1 1 2 3 3 1
0 0 0 0 0 0 0 0 1 3 5 8 9 9 11 16 23 28 29 26 23 21 22 24 23 22 24 25 25 28 29 30 29 25 19 15 9 5 5 7 6 3 0 0 1 3 4 3 1
0 0 0 0 0 0 0 0 2 3 5 8 11 12 13 17 21 24 27 26 21 17 16 17 17 17 19 21 22 25 28 28 27 23 18 14 10 6 6 7 7 4 1 0 1 4 6 4 2
0 0 0 0 0 0 0 0 1 2 2 5 10 13 15 17 18 21 25 24 19 15 13 13 14 14 14 17 21 24 26 24 23 20 16 13 10 8 7 7 7 4 1 0 2 4 6 4 2
0 0 0 0 0 0 0 0 0 1 2 6 12 16 19 20 19 21 23 23 19 15 12 11 11 10 11 13 16 20 21 20 19 18 15 12 10 8 6 6 4 2 0 1 3 5 6 4 2
0 0 0 0 0 0 0 1 1 2 7 13 18 21 23 23 23 23 23 23 21 17 13 11 10 9 9 9 11 14 18 19 17 16 14 11 10 7 4 3 1 0 0 2 4 5 5 4 2
0 0 0 0 0 0 0 1 3 5 10 17 20 22 23 24 23 22 23 23 22 18 14 13 12 11 10 8 9 13 17 20 18 15 13 11 9 6 3 1 0 0 0 1 2 3 3 3 2
0 0 0 0 0 0 0 1 3 6 11 15 17 19 21 21 21 21 23 24 22 17 15 15 15 16 14 12 13 16 19 21 18 15 13 11 8 5 3 1 1 1 1 1 1 1 1 2 1
0 0 0 0 0 0 0 1 3 5 9 12 15 17 17 16 15 18 22 24 22 19 17 15 16 17 17 17 17 19 20 19 16 14 13 11 8 5 4 3 3 3 2 2 2 2 1 1 0
0 0 0 0 0 1 1 3 4 5 6 9 12 13 13 11 10 14 19 22 21 19 17 14 14 15 17 19 19 19 18 16 13 13 13 10 7 6 5 5 6 6 4 4 3 3 2 1 0
0 0 0 0 0 1 2 3 3 4 4 6 8 10 10 9 9 11 15 18 18 17 16 14 14 15 17 21 21 18 15 12 11 10 9 8 6 6 6 6 7 6 6 5 4 3 2 1 0
0 0 0 0 0 1 2 2 1 1 2 3 6 8 8 9 10 11 13 16 17 17 17 17 17 17 19 21 22 19 15 12 10 7 6 5 5 4 4 5 5 6 6 5 4 3 2 1 0
0 0 0 0 0 0 1 1 0 1 1 3 6 6 7 9 11 10 11 15 17 18 19 20 20 20 20 20 21 20 17 13 9 6 5 4 3 2 3 4 5 5 5 5 4 3 1 0 0
0 0 0 0 0 0 0 0 1 2 3 4 6 7 8 9 9 9 11 15 18 19 20 20 20 20 19 17 17 18 16 11 7 4 3 2 1 2 3 4 5 5 5 4 3 2 1 0 0
0 0 0 0 0 0 0 0 1 2 3 3 5 7 8 8 7 8 11 14 15 16 18 19 19 19 17 14 12 12 11 8 4 3 2 1 0 1 3 5 6 6 6 5 5 2 1 0 0
0 0 0 0 0 0 0 0 0 1 1 1 3 5 7 7 7 7 9 11 12 12 15 17 17 16 14 12 9 8 8 6 4 2 1 0 0 0 2 4 6 7 7 7 7 4 1 0 0
0 0 0 0 0 0 0 0 0 0 0 0 2 4 6 8 8 7 7 8 9 11 13 15 15 12 9 8 5 5 6 6 3 2 1 0 0 0 1 2 5 7 8 8 8 6 3 1 1
0 0 0 0 0 0 0 0 0 0 0 0 2 4 7 9 8 7 6 7 8 9 10 12 11 7 4 3 2 3 4 4 2 1 0 0 0 0 1 2 4 6 7 7 7 6 5 3 3
0 0 0 0 0 0 0 0 0 0 0 0 1 3 6 8 9 7 5 5 6 7 8 8 6 4 2 1 1 2 3 2 1 0 0 0 0 0 1 1 3 5 6 6 6 5 5 4 4
0 0 0 0 0 0 0 0 0 0 0 0 0 1 3 6 8 6 4 4 4 5 6 5 4 3 2 2 3 3 3 2 1 0 0 0 0 0 0 0 2 4 6 6 6 5 4 4 5
0 0 0 0 0 0 0 0 0 0 0 0 0 0 1 4 6 4 3 2 3 3 3 3 2 1 1 2 3 4 3 1 0 0 0 0 0 0 0 0 0 2 5 6 6 5 4 3 4
0 0 0 0 0 0 0 0 0 0 0 0 1 1 2 3 4 3 1 1 1 1 1 1 0 0 0 1 2 3 1 0 0 0 0 0 0 0 1 1 0 1 4 6 6 4 3 3 3
0 0 0 0 0 0 0 0 0 0 0 1 2 2 2 3 3 2 1 0 0 0 0 0 0 0 0 1 2 2 1 0 0 0 0 0 0 1 2 2 1 1 3 5 6 4 3 3 3
Wind_Speed
3 2 1 2 4 4 2 4 1 1 2 2 5 7 6 4 4 4 2 10 13 14 12 14 15 16 15 14 14 14 13 12 12 12 12 12 13 13 13 12 12 12 11 11 10 10 9 8 7
1 2 2 3 4 2 3 3 1 1 3 4 5 7 6 5 5 7 5 9 14 14 11 12 16 16 15 14 14 13 13 12 12 11 11 12 12 12 11 11 11 11 10 10 9 9 8 7 6
1 1 3 3 2 3 3 2 1 1 2 3 3 4 5 4 4 5 7 13 13 11 10 12 17 16 15 14 14 13 12 12 11 11 11 11 11 11 10 11 11 10 10 9 9 8 7 7 6
1 3 4 3 3 5 5 4 1 2 3 4 5 5 4 3 3 6 13 15 13 10 9 12 17 16 15 15 14 12 12 11 11 10 11 10 11 10 10 10 10 9 9 8 8 8 7 7 6
3 4 4 2 4 4 4 3 2 3 2 4 7 5 3 4 6 11 12 13 13 9 7 9 14 15 15 14 13 13 12 11 10 10 10 10 10 10 9 9 9 9 9 8 8 7 7 6 6
3 4 3 2 5 4 3 1 3 5 4 4 5 5 2 3 8 9 11 10 11 11 8 8 11 12 12 12 12 11 11 10 9 9 9 9 9 10 10 9 9 9 9 8 8 7 7 6 6
3 3 2 3 3 4 3 1 3 4 5 3 3 4 2 2 4 8 9 9 9 9 8 6 7 8 10 10 10 10 10 10 9 8 8 9 9 10 10 10 9 9 8 8 7 7 7 6 6
5 4 1 2 2 4 3 2 3 5 4 3 4 5 2 2 5 9 10 8 8 7 6 5 5 5 5 6 9 10 10 9 9 9 9 9 9 9 10 9 9 9 9 9 8 8 7 7 7
3 4 2 3 2 3 2 3 4 4 6 4 4 4 5 6 9 11 10 7 7 6 4 4 4 4 3 4 6 8 9 8 8 7 9 8 4 4 5 7 9 9 8 8 8 8 7 6 6
4 3 6 5 3 3 2 1 3 5 6 5 5 5 7 8 9 10 10 8 7 7 5 3 4 4 3 4 3 2 3 3 3 3 4 3 3 3 5 7 9 9 9 8 8 8 7 5 2
4 6 5 4 4 3 1 1 3 6 3 3 5 6 6 8 7 8 7 8 8 7 6 4 5 5 4 2 3 2 1 2 2 3 3 3 3 2 3 2 4 5 6 4 5 4 3 3 2
2 6 4 3 3 1 2 2 3 4 4 5 7 7 7 8 6 6 7 7 7 7 6 5 5 5 5 4 3 3 2 2 2 3 3 3 2 2 2 2 2 2 2 3 3 2 3 3 3
2 4 3 3 2 2 3 2 4 3 5 7 8 9 7 7 6 5 5 5 5 5 4 5 4 4 3 3 3 3 3 4 3 3 3 4 3 3 3 2 2 2 2 3 3 3 3 3 3
4 3 3 1 1 2 4 2 4 1 6 8 8 7 6 6 5 5 5 5 5 5 4 4 4 4 4 3 3 3 3 3 3 3 3 4 3 3 3 2 2 2 2 2 2 3 3 3 2
1 3 4 2 1 2 5 5 2 3 6 7 6 7 6 5 5 5 5 5 4 4 4 3 4 4 4 3 2 2 2 3 3 3 3 4 3 3 3 2 2 3 2 3 2 2 1 2 2
4 2 2 4 1 1 7 2 1 3 6 5 5 5 5 3 3 4 4 4 4 4 4 3 3 3 3 3 3 2 2 2 3 3 3 3 3 3 3 3 2 2 2 2 2 2 1 2 2
3 1 3 4 1 2 5 2 0 1 5 5 5 4 4 3 3 1 2 3 4 4 5 3 3 4 3 3 2 2 2 2 2 2 2 2 3 3 3 2 2 2 2 2 2 2 2 1 1
4 3 2 1 1 5 6 3 2 3 6 5 5 4 3 2 0 1 1 2 2 3 4 3 3 3 2 2 1 1 1 1 2 2 2 2 2 3 2 1 1 1 1 1 1 2 1 2 2
4 1 2 2 1 5 6 4 3 4 6 5 4 4 3 1 2 1 1 2 2 2 2 2 2 2 2 1 1 1 2 2 1 2 2 2 2 2 2 1 1 1 2 2 2 2 1 1 1
0 1 1 1 2 5 6 5 4 5 5 4 3 3 2 2 3 2 1 2 1 2 2 2 3 2 2 1 1 2 2 2 2 1 1 2 2 3 3 3 3 2 2 2 2 2 1 1 1
2 1 2 1 3 5 5 5 5 4 5 5 4 2 2 3 2 2 1 0 0 1 2 2 3 3 2 2 1 1 1 1 0 0 1 2 2 2 2 3 3 2 2 2 2 2 2 1 1
3 3 2 2 3 1 2 1 3 3 5 5 5 4 4 3 3 2 2 1 0 2 2 1 2 2 2 1 1 2 2 1 2 1 1 1 2 2 3 3 3 2 2 2 2 2 2 2 1
4 3 1 2 3 2 3 4 3 3 4 5 5 4 4 3 3 3 2 1 1 1 1 1 1 1 1 1 2 2 1 1 1 1 1 1 1 2 2 3 3 3 3 3 3 2 2 2 2
1 4 5 5 5 3 2 4 1 2 2 3 3 3 3 3 3 3 2 2 2 1 1 1 1 0 1 1 1 1 2 1 1 1 1 1 1 1 2 2 2 3 2 3 3 3 3 2 3
6 7 5 6 5 1 1 5 1 2 1 1 2 2 2 2 2 3 3 3 3 2 1 1 1 1 1 1 1 1 2 2 2 2 2 1 1 1 2 2 2 2 2 3 3 3 3 3 3
2 7 6 2 2 2 2 2 2 0 1 2 2 2 2 2 2 2 3 3 2 2 1 1 0 0 1 1 1 1 1 1 1 1 2 2 2 3 3 2 3 3 3 3 3 2 3 2 3
3 2 5 6 1 2 1 0 1 3 4 4 4 4 3 2 2 2 2 2 2 1 1 1 0 0 1 1 1 1 1 1 2 2 2 2 2 2 2 2 3 3 3 3 3 2 2 2 2
3 3 5 5 3 1 1 1 2 2 3 3 3 4 3 3 3 3 2 2 2 1 1 1 1 0 0 0 1 1 1 2 2 2 2 2 2 2 2 2 2 2 2 2 2 2 2 2 2
4 4 4 3 4 4 1 4 2 3 2 2 3 3 3 1 2 2 2 2 2 2 2 2 2 1 1 1 1 1 1 1 1 1 2 2 2 1 2 2 1 1 1 2 2 2 2 2 2
4 2 4 3 1 2 3 4 1 2 2 1 2 3 2 1 1 1 2 2 2 3 3 2 2 2 1 1 0 1 1 1 0 1 2 1 1 1 1 1 1 1 1 1 2 3 3 3 3
Wind_Direction
233 193 109 62 54 44 278 260 206 355 10 59 82 86 87 83 114 147 169 145 141 146 152 153 147 142 139 137 134 132 134 132 130 130 131 131 131 131 132 133 135 138 141 143 144 144 143 140 140
220 162 75 56 77 46 280 251 52 202 150 106 75 78 74 67 87 114 123 148 145 148 151 152 148 144 142 139 138 140 141 139 139 140 140 141 139 138 139 141 143 145 147 150 152 153 152 151 153
235 157 94 75 108 185 243 250 175 354 57 79 78 62 75 89 101 137 153 147 142 144 148 152 149 146 144 144 145 145 145 145 147 149 148 149 148 147 150 149 150 151 153 157 159 161 163 164 169
92 59 54 65 264 242 223 254 247 53 44 52 86 69 63 73 120 143 143 144 139 142 147 153 150 150 150 150 151 150 150 151 152 153 155 156 156 156 158 158 157 158 160 164 168 172 175 178 183
72 78 58 357 268 264 254 239 138 73 73 70 86 91 55 20 89 122 133 139 139 138 145 151 152 153 155 156 156 155 154 155 156 157 159 160 162 163 165 169 169 170 172 174 178 181 187 188 192
59 71 79 269 270 280 288 278 84 75 84 74 83 93 74 73 102 124 126 134 138 138 137 141 151 154 155 157 159 159 157 157 158 161 163 164 168 172 175 179 181 182 183 181 184 187 194 200 207
119 100 179 239 282 306 292 335 82 100 79 62 85 84 81 62 113 122 121 119 119 125 130 136 151 156 159 161 163 164 163 160 161 166 170 172 176 181 184 188 191 189 188 189 192 197 203 210 220
149 104 314 278 263 275 294 24 84 93 86 88 85 111 152 186 122 113 112 109 112 116 123 129 135 141 155 165 169 168 169 170 170 174 177 181 185 188 194 194 193 192 195 196 199 205 211 216 227
113 83 236 233 211 258 313 56 41 61 87 71 69 109 138 131 111 107 109 103 112 115 122 134 134 136 149 164 176 174 175 177 178 181 187 188 191 192 197 198 195 195 199 206 210 215 223 226 236
111 154 229 220 196 214 297 89 121 80 74 59 54 82 116 112 114 118 126 131 133 134 140 147 151 152 156 173 160 173 181 178 182 188 195 188 182 191 194 201 202 203 207 214 220 224 227 226 231
166 194 231 252 231 209 179 35 99 114 100 149 146 148 133 118 123 132 138 146 153 153 151 167 173 170 171 173 160 172 177 176 189 197 193 185 183 190 205 201 209 211 214 217 225 226 221 217 217
215 245 235 243 247 222 171 154 94 103 158 150 133 130 128 128 135 140 146 155 156 153 162 173 176 172 178 174 180 180 180 187 194 198 188 181 188 192 190 193 196 200 206 205 215 216 222 225 225
251 259 253 210 161 147 95 95 101 83 119 118 110 103 107 116 124 129 143 146 148 150 161 165 167 166 170 172 187 184 191 194 195 191 190 184 183 191 187 191 195 203 200 199 206 215 222 224 233
248 273 294 251 161 140 114 67 81 120 116 112 112 112 112 120 130 126 126 135 154 162 165 155 153 159 157 172 185 188 189 189 189 192 192 183 182 183 188 194 196 204 206 207 201 206 216 220 218
301 341 327 282 225 203 108 42 53 144 117 115 115 110 101 112 120 125 147 159 156 158 155 158 155 145 149 165 186 181 184 181 178 193 191 183 184 184 180 186 203 204 196 189 186 206 209 225 223
359 17 307 272 208 165 98 92 286 157 120 114 107 101 94 91 125 145 148 154 153 151 152 166 157 152 158 158 173 179 177 179 184 191 188 188 188 186 180 185 203 196 183 180 183 193 199 235 238
356 305 264 287 279 101 98 132 299 99 108 112 108 95 92 76 51 51 147 154 159 152 150 159 165 172 182 175 173 183 183 180 186 185 180 187 186 176 179 197 201 182 174 184 200 191 184 216 246
264 267 281 271 294 101 99 96 46 66 104 106 101 93 78 66 82 228 158 149 139 124 125 143 143 159 173 160 147 161 176 192 181 185 187 188 189 177 167 178 193 173 156 193 211 205 193 193 204
241 277 306 271 223 97 98 86 61 57 69 74 81 98 97 358 312 20 76 85 96 97 112 128 129 135 138 147 165 178 210 214 202 197 188 186 181 170 166 183 178 171 184 209 212 201 205 231 162
256 38 347 2 67 99 98 70 52 57 68 83 86 75 83 18 12 16 24 71 106 168 164 150 151 147 151 178 192 189 191 211 209 205 193 189 183 182 176 192 196 185 181 193 211 187 176 243 155
327 190 204 192 45 74 100 42 32 33 44 45 42 47 58 64 37 358 12 215 152 191 189 183 184 171 166 166 133 98 90 86 100 169 205 213 196 193 191 191 192 186 180 196 209 193 171 199 244
284 264 206 155 96 331 96 114 344 358 23 25 20 20 27 34 28 4 41 23 238 236 221 202 191 164 155 146 140 160 161 186 210 208 212 228 214 204 192 193 188 183 184 192 206 188 172 169 203
243 256 203 151 121 73 35 108 308 354 15 352 347 4 6 8 18 16 30 337 311 274 238 194 151 134 146 166 185 180 181 199 181 139 151 250 248 228 219 202 187 193 195 195 196 188 179 180 185
328 31 32 47 70 58 304 114 323 326 306 333 344 353 353 357 14 10 11 30 356 329 282 113 93 147 176 185 184 172 163 163 148 163 201 251 256 249 236 211 198 203 203 201 199 192 186 188 188
46 65 31 9 21 300 354 89 252 306 321 329 317 335 350 347 354 355 11 20 357 353 8 75 124 244 246 181 180 188 173 164 170 196 207 216 250 257 244 223 210 207 206 206 198 184 188 192 186
32 112 133 189 225 271 21 102 219 288 17 354 346 348 359 346 347 358 5 22 12 347 358 1 95 239 244 192 210 202 178 169 180 197 200 210 227 236 239 227 215 212 208 207 191 182 192 188 195
60 68 160 138 88 72 356 132 310 4 10 2 358 357 349 347 351 357 2 21 16 354 332 293 282 273 235 213 202 218 194 177 197 213 209 230 240 238 229 225 225 220 206 195 182 188 203 192 201
110 128 71 83 99 20 311 261 253 300 327 335 332 335 331 351 354 355 2 357 345 349 353 15 52 81 300 252 242 237 228 211 216 219 233 244 252 245 223 230 226 224 207 192 181 193 206 199 219
21 40 78 95 137 144 236 273 232 198 230 269 299 311 308 335 340 348 357 356 356 2 5 22 25 30 17 350 271 274 267 239 230 239 244 252 262 242 236 236 209 201 208 205 185 206 198 201 224
80 91 120 128 255 144 159 263 293 188 233 260 317 319 317 347 338 356 -0 11 14 10 8 10 9 4 331 309 296 295 299 278 294 296 278 271 272 272 228 201 190 196 195 193 189 215 216 206 218